sat.trackr.live / text

‹ back to catalog

HEAD-1

NORAD 43011 · 2017-072B

PAYLOAD ACTIVE UNKNOWN

§ Identity

Operator
Country
PRC
Launch date
2017-11-14
Launch site
TAISC
Launch vehicle
Mass (kg)
RCS (m²)

External: N2YO · Heavens-Above · Gunter

§ Orbital elements

Epoch: 2026-09-10T04:22:26.608224Z

Period
100.78 min
Inclination
98.9547°
Eccentricity
0.0008820
Mean motion
14.28842433 rev/d
Perigee alt
789.3 km
Apogee alt
801.9 km
Semi-major
7,173.7 km
B*
1.0240e-4
RAAN
273.9585°
Arg perigee
268.1386°
Mean anomaly
91.8784°
Rev number
45,949

§ Raw data

HEAD-11 43011U 17072B   26253.18225241  .00000211  00000+0  10240-3 0  99922 43011  98.9547 273.9585 0008820 268.1386  91.8784 14.28842433459491

JSON: /api/v1/satellites/43011 · /tle

For live sub-satellite position, see the globe view (requires WebGL).

§ Visibility from observer

Set your observer location to see the next 7 days of passes ≥ 10°. The values pass through the URL so the page stays shareable.

No JS? Fill the form by hand. The geolocation button needs JavaScript.